contact:dominique.lefevre@mio.osupytheas.fr, maurice.libes@osupytheas.fr, didier.mallarino@osupytheas.fr
Project:EMSO http://www.emso-fr.org/EMSO-France
Depth: 2436.0 m
Title:EMSO Ligure Ouest : Data MII capteur AQUADOPP
Date,Latitude,Longitude,X_East,Y_North,Z_Up,Amplitude_X,Amplitude_Y,Amplitude_Z,Batterie,SoundSpeed,Heading,Pitch,Roll,Pressure,TIS,Speed,Direction
, degrees North, degrees East, m.s-1, m.s-1,m.s-1, 1, 1, 1, Volt, m.s-1, degree, degree, degree, dbar, degree_C, m.s-1, degree
2021-12-03T00:04:03,42.805,6.029,-0.041,-0.013,-0.08,100.0,101.0,99.0,13.3,1505.2,328.9,-0.7,1.8,2470.45,13.28,0.043,252.4
2021-12-03T00:07:03,42.805,6.029,-0.041,-0.004,0.016,97.0,100.0,100.0,13.4,1505.2,325.4,-0.8,1.8,2470.442,13.28,0.041,264.4
2021-12-03T00:10:03,42.805,6.029,-0.039,-0.005,-0.019,99.0,100.0,99.0,13.3,1505.2,328.9,-0.8,1.8,2470.45,13.28,0.039,262.7
2021-12-03T00:13:03,42.805,6.029,-0.066,-0.001,-0.033,100.0,100.0,99.0,13.4,1505.2,329.4,-0.8,1.8,2470.436,13.28,0.066,269.1
2021-12-03T00:16:03,42.805,6.029,-0.039,0.0,-0.027,99.0,101.0,99.0,13.4,1505.2,327.3,-0.7,1.8,2470.454,13.28,0.039,270.0
2021-12-03T00:19:03,42.805,6.029,-0.059,-0.014,-0.057,99.0,101.0,99.0,13.4,1505.2,326.1,-0.8,1.8,2470.439,13.28,0.06,256.7
2021-12-03T00:22:03,42.805,6.029,-0.038,-0.016,-0.04,100.0,100.0,100.0,13.3,1505.2,327.9,-0.8,1.8,2470.441,13.28,0.041,247.2
2021-12-03T00:25:03,42.805,6.029,-0.047,0.001,0.005,100.0,100.0,99.0,13.4,1505.2,329.1,-0.7,1.8,2470.417,13.28,0.047,271.2
2021-12-03T00:28:03,42.805,6.029,-0.041,-0.002,-0.006,100.0,100.0,99.0,13.4,1505.2,327.0,-0.7,1.8,2470.411,13.28,0.041,267.2
2021-12-03T00:31:03,42.805,6.029,-0.066,-0.006,-0.032,100.0,99.0,100.0,13.4,1505.2,327.8,-0.8,1.8,2470.406,13.28,0.066,264.8
2021-12-03T00:34:03,42.805,6.029,-0.038,-0.03,-0.033,100.0,102.0,97.0,13.4,1505.2,325.5,-0.7,1.8,2470.415,13.28,0.048,231.7
2021-12-03T00:37:03,42.805,6.029,-0.078,-0.019,-0.041,98.0,99.0,100.0,13.4,1505.2,328.3,-0.7,1.8,2470.428,13.28,0.08,256.3
2021-12-03T00:40:03,42.805,6.029,-0.076,-0.003,-0.051,100.0,99.0,99.0,13.3,1505.2,330.3,-0.8,1.8,2470.436,13.28,0.076,267.7
2021-12-03T00:43:03,42.805,6.029,-0.055,0.008,-0.023,99.0,100.0,99.0,13.4,1505.2,329.3,-0.8,1.8,2470.441,13.28,0.055,278.3
2021-12-03T00:46:03,42.805,6.029,-0.074,0.006,-0.021,100.0,99.0,99.0,13.4,1505.2,329.9,-0.7,1.8,2470.456,13.28,0.074,274.6
2021-12-03T00:49:03,42.805,6.029,-0.069,0.0,-0.017,101.0,99.0,99.0,13.3,1505.2,327.7,-0.8,1.8,2470.434,13.28,0.068,270.0
2021-12-03T00:52:03,42.805,6.029,-0.051,-0.005,-0.024,100.0,100.0,99.0,13.4,1505.2,326.7,-0.7,1.8,2470.45,13.28,0.051,264.4
2021-12-03T00:55:03,42.805,6.029,-0.047,0.012,-0.004,99.0,99.0,99.0,13.4,1505.2,327.3,-0.7,1.8,2470.477,13.28,0.048,284.3
2021-12-03T00:58:03,42.805,6.029,-0.046,-0.01,-0.043,99.0,99.0,99.0,13.4,1505.2,327.4,-0.7,1.8,2470.457,13.28,0.047,257.7
2021-12-03T01:04:03,42.805,6.029,-0.026,0.013,0.03,100.0,102.0,101.0,13.3,1505.2,329.1,-0.8,1.8,2470.486,13.28,0.029,296.6
2021-12-03T01:07:03,42.805,6.029,-0.069,0.007,-0.004,100.0,100.0,99.0,13.4,1505.2,327.6,-0.7,1.8,2470.451,13.28,0.069,275.8
2021-12-03T01:10:03,42.805,6.029,-0.046,-0.024,-0.068,100.0,101.0,101.0,13.4,1505.2,331.7,-0.7,1.9,2470.482,13.28,0.051,242.4
2021-12-03T01:13:03,42.805,6.029,-0.071,-0.006,-0.039,100.0,100.0,99.0,13.4,1505.2,330.5,-0.7,1.8,2470.481,13.28,0.071,265.2
2021-12-03T01:16:03,42.805,6.029,-0.059,-0.014,-0.012,102.0,98.0,99.0,13.4,1505.2,327.5,-0.7,1.8,2470.441,13.28,0.06,256.7
2021-12-03T01:19:03,42.805,6.029,-0.054,-0.007,-0.033,100.0,99.0,99.0,13.4,1505.2,327.8,-0.8,1.8,2470.488,13.28,0.054,262.6
2021-12-03T01:22:03,42.805,6.029,-0.041,-0.016,-0.041,101.0,97.0,98.0,13.3,1505.2,328.2,-0.7,1.8,2470.453,13.28,0.044,248.7
2021-12-03T01:25:03,42.805,6.029,-0.051,-0.035,-0.052,101.0,101.0,99.0,13.4,1505.2,327.5,-0.8,1.8,2470.508,13.28,0.061,235.5
2021-12-03T01:28:03,42.805,6.029,-0.076,0.004,-0.025,100.0,99.0,99.0,13.4,1505.2,326.8,-0.7,1.8,2470.473,13.28,0.076,273.0
2021-12-03T01:31:03,42.805,6.029,-0.076,0.026,-0.023,99.0,99.0,99.0,13.3,1505.2,330.5,-0.7,1.8,2470.467,13.28,0.08,288.9
2021-12-03T01:34:03,42.805,6.029,-0.032,0.01,0.0,99.0,100.0,99.0,13.4,1505.2,325.1,-0.7,1.8,2470.504,13.28,0.033,287.4
2021-12-03T01:37:03,42.805,6.029,-0.05,-0.005,-0.047,100.0,98.0,100.0,13.4,1505.2,331.6,-0.8,1.8,2470.48,13.28,0.05,264.3
2021-12-03T01:40:03,42.805,6.029,-0.053,-0.003,-0.011,100.0,99.0,99.0,13.3,1505.2,329.6,-0.8,1.8,2470.508,13.28,0.053,266.8
2021-12-03T01:43:03,42.805,6.029,-0.058,0.008,-0.021,100.0,100.0,100.0,13.4,1505.2,325.0,-0.7,1.8,2470.434,13.28,0.058,277.8
2021-12-03T01:46:03,42.805,6.029,-0.061,-0.005,-0.026,100.0,101.0,100.0,13.3,1505.2,331.2,-0.7,1.8,2470.478,13.28,0.061,265.3
2021-12-03T01:49:03,42.805,6.029,-0.044,0.002,-0.04,99.0,99.0,99.0,13.4,1505.2,329.8,-0.7,1.8,2470.47,13.28,0.044,272.6
2021-12-03T01:52:03,42.805,6.029,-0.05,0.001,-0.03,100.0,99.0,99.0,13.4,1505.2,331.1,-0.8,1.8,2470.491,13.28,0.05,271.1
2021-12-03T01:55:03,42.805,6.029,-0.04,-0.027,-0.1,100.0,100.0,99.0,13.3,1505.2,325.5,-0.8,1.8,2470.487,13.28,0.048,236.0
2021-12-03T01:58:03,42.805,6.029,-0.057,-0.002,-0.032,100.0,99.0,100.0,13.4,1505.2,326.1,-0.8,1.9,2470.457,13.28,0.057,268.0
2021-12-03T02:04:03,42.805,6.029,-0.053,-0.008,-0.026,101.0,98.0,99.0,13.4,1505.2,330.5,-0.7,1.8,2470.528,13.28,0.053,261.4
2021-12-03T02:07:03,42.805,6.029,-0.052,0.0,-0.038,99.0,102.0,99.0,13.4,1505.2,325.9,-0.8,1.8,2470.603,13.28,0.052,270.0
2021-12-03T02:10:03,42.805,6.029,-0.061,0.001,-0.037,100.0,99.0,100.0,13.3,1505.2,330.0,-0.7,1.8,2470.565,13.28,0.061,270.9
2021-12-03T02:13:03,42.805,6.029,-0.091,0.0,-0.046,100.0,100.0,99.0,13.3,1505.2,324.9,-0.8,1.8,2470.577,13.28,0.091,270.0
2021-12-03T02:16:03,42.805,6.029,-0.048,-0.015,-0.016,100.0,99.0,100.0,13.4,1505.2,324.9,-0.8,1.9,2470.585,13.28,0.05,252.6
2021-12-03T02:19:03,42.805,6.029,-0.059,0.001,-0.003,100.0,100.0,98.0,13.4,1505.2,329.5,-0.7,1.8,2470.559,13.28,0.059,271.0
2021-12-03T02:22:03,42.805,6.029,-0.059,0.027,0.002,100.0,100.0,100.0,13.3,1505.2,330.3,-0.8,1.8,2470.52,13.28,0.064,294.6
2021-12-03T02:25:03,42.805,6.029,-0.083,0.011,-0.036,99.0,101.0,99.0,13.4,1505.2,329.0,-0.7,1.8,2470.579,13.28,0.083,277.5
2021-12-03T02:28:03,42.805,6.029,-0.058,-0.007,-0.024,99.0,99.0,99.0,13.3,1505.2,330.9,-0.8,1.8,2470.553,13.28,0.058,263.1
2021-12-03T02:31:03,42.805,6.029,-0.083,0.003,-0.034,100.0,101.0,100.0,13.4,1505.2,325.0,-0.8,1.8,2470.505,13.28,0.083,272.1
2021-12-03T02:34:03,42.805,6.029,-0.07,-0.019,-0.053,99.0,100.0,100.0,13.4,1505.2,325.5,-0.8,1.8,2470.566,13.28,0.072,254.8
2021-12-03T02:37:03,42.805,6.029,-0.059,-0.001,-0.027,101.0,99.0,99.0,13.3,1505.2,325.1,-0.7,1.8,2470.555,13.28,0.059,269.0
2021-12-03T02:40:03,42.805,6.029,-0.06,0.007,-0.036,99.0,101.0,99.0,13.4,1505.2,329.0,-0.7,1.8,2470.542,13.28,0.06,276.7
2021-12-03T02:43:03,42.805,6.029,-0.048,0.0,-0.019,100.0,100.0,99.0,13.3,1505.2,327.7,-0.8,1.8,2470.524,13.28,0.048,270.0
2021-12-03T02:46:03,42.805,6.029,-0.07,-0.003,-0.031,100.0,102.0,98.0,13.4,1505.2,331.0,-0.7,1.8,2470.523,13.28,0.07,267.6
2021-12-03T02:49:03,42.805,6.029,-0.048,0.006,0.003,102.0,98.0,100.0,13.4,1505.2,327.8,-0.8,1.8,2470.554,13.28,0.048,277.1
2021-12-03T02:52:03,42.805,6.029,-0.053,-0.003,-0.051,100.0,98.0,100.0,13.3,1505.2,326.0,-0.8,1.8,2470.581,13.28,0.053,266.8
2021-12-03T02:55:03,42.805,6.029,-0.093,-0.002,-0.038,100.0,100.0,99.0,13.3,1505.2,329.7,-0.7,1.8,2470.496,13.28,0.093,268.8
2021-12-03T02:58:03,42.805,6.029,-0.081,0.014,-0.024,101.0,101.0,98.0,13.4,1505.2,331.2,-0.8,1.8,2470.561,13.28,0.082,279.8
2021-12-03T03:04:03,42.805,6.029,-0.056,0.013,-0.016,99.0,100.0,100.0,13.3,1505.2,326.8,-0.8,1.8,2470.584,13.28,0.057,283.1
2021-12-03T03:07:03,42.805,6.029,-0.05,-0.006,-0.019,102.0,98.0,99.0,13.4,1505.2,326.1,-0.7,1.8,2470.559,13.28,0.05,263.2
2021-12-03T03:10:03,42.805,6.029,-0.077,0.016,-0.013,100.0,101.0,99.0,13.4,1505.2,327.0,-0.7,1.8,2470.591,13.28,0.078,281.7
2021-12-03T03:13:03,42.805,6.029,-0.092,-0.007,-0.083,101.0,99.0,98.0,13.4,1505.2,326.4,-0.7,1.8,2470.571,13.28,0.092,265.6
2021-12-03T03:16:03,42.805,6.029,-0.084,0.009,-0.032,100.0,100.0,99.0,13.4,1505.2,327.9,-0.7,1.8,2470.595,13.28,0.084,276.1
2021-12-03T03:19:03,42.805,6.029,-0.06,0.003,-0.023,101.0,101.0,98.0,13.4,1505.2,325.9,-0.7,1.8,2470.608,13.28,0.06,272.9
2021-12-03T03:22:03,42.805,6.029,-0.055,-0.022,-0.053,100.0,99.0,100.0,13.4,1505.2,326.3,-0.7,1.8,2470.594,13.28,0.059,248.2
2021-12-03T03:25:03,42.805,6.029,-0.058,0.013,0.0,100.0,100.0,99.0,13.3,1505.2,329.5,-0.7,1.8,2470.599,13.28,0.059,282.6
2021-12-03T03:28:03,42.805,6.029,-0.079,0.028,-0.026,100.0,100.0,100.0,13.4,1505.2,329.3,-0.7,1.8,2470.579,13.28,0.083,289.5
2021-12-03T03:31:03,42.805,6.029,-0.046,0.017,0.005,100.0,100.0,99.0,13.4,1505.2,328.4,-0.7,1.8,2470.584,13.28,0.049,290.3
2021-12-03T03:34:03,42.805,6.029,-0.065,-0.001,-0.042,100.0,100.0,100.0,13.3,1505.2,329.5,-0.8,1.8,2470.616,13.28,0.065,269.1
2021-12-03T03:37:03,42.805,6.029,-0.044,-0.009,-0.036,100.0,100.0,99.0,13.4,1505.2,326.5,-0.8,1.9,2470.615,13.28,0.044,258.4
2021-12-03T03:40:03,42.805,6.029,-0.047,0.011,-0.039,101.0,100.0,99.0,13.4,1505.2,328.1,-0.8,1.9,2470.606,13.28,0.048,283.2
2021-12-03T03:43:03,42.805,6.029,-0.067,0.022,-0.015,99.0,100.0,99.0,13.4,1505.2,327.1,-0.8,1.8,2470.657,13.28,0.07,288.2
2021-12-03T03:46:03,42.805,6.029,-0.059,0.002,-0.006,100.0,99.0,100.0,13.3,1505.2,327.4,-0.8,1.8,2470.654,13.28,0.059,271.9
2021-12-03T03:49:03,42.805,6.029,-0.053,0.01,-0.006,101.0,101.0,100.0,13.4,1505.2,328.3,-0.8,1.7,2470.629,13.28,0.053,280.7
2021-12-03T03:52:03,42.805,6.029,-0.079,0.029,-0.015,100.0,100.0,99.0,13.3,1505.2,328.2,-0.7,1.9,2470.639,13.28,0.084,290.2
2021-12-03T03:55:03,42.805,6.029,-0.035,-0.01,0.003,100.0,99.0,99.0,13.4,1505.2,325.4,-0.8,1.8,2470.612,13.28,0.036,254.1
2021-12-03T03:58:03,42.805,6.029,-0.059,0.004,-0.026,100.0,100.0,99.0,13.3,1505.2,330.7,-0.7,1.8,2470.643,13.28,0.059,273.9
2021-12-03T04:04:03,42.805,6.029,-0.026,-0.012,0.002,98.0,102.0,100.0,13.4,1505.2,329.5,-0.7,1.8,2470.699,13.28,0.028,245.2
2021-12-03T04:07:03,42.805,6.029,-0.049,0.0,-0.036,100.0,99.0,99.0,13.4,1505.2,331.1,-0.7,1.8,2470.702,13.28,0.049,270.0
2021-12-03T04:10:03,42.805,6.029,-0.073,0.005,-0.057,99.0,99.0,100.0,13.4,1505.2,327.2,-0.7,1.8,2470.669,13.28,0.073,273.9
2021-12-03T04:13:03,42.805,6.029,-0.065,0.002,0.002,100.0,100.0,99.0,13.3,1505.2,327.6,-0.8,1.8,2470.65,13.28,0.065,271.8
2021-12-03T04:16:03,42.805,6.029,-0.048,0.0,-0.015,98.0,102.0,99.0,13.4,1505.2,329.2,-0.7,1.8,2470.686,13.28,0.048,270.0
2021-12-03T04:19:03,42.805,6.029,-0.053,-0.005,-0.027,100.0,99.0,99.0,13.3,1505.2,326.7,-0.8,1.8,2470.665,13.28,0.053,264.6
2021-12-03T04:22:03,42.805,6.029,-0.055,0.001,-0.037,100.0,100.0,99.0,13.3,1505.2,329.1,-0.7,1.8,2470.675,13.28,0.055,271.0
2021-12-03T04:25:03,42.805,6.029,-0.087,-0.01,-0.024,101.0,99.0,99.0,13.4,1505.2,327.8,-0.7,1.8,2470.685,13.28,0.087,263.4
2021-12-03T04:28:03,42.805,6.029,-0.045,0.024,0.013,101.0,100.0,99.0,13.4,1505.2,330.1,-0.7,1.8,2470.686,13.28,0.051,298.1
2021-12-03T04:31:03,42.805,6.029,-0.063,0.007,-0.006,100.0,99.0,99.0,13.4,1505.2,330.4,-0.8,1.8,2470.677,13.28,0.063,276.3
2021-12-03T04:34:03,42.805,6.029,-0.054,0.011,-0.029,101.0,101.0,98.0,13.4,1505.2,328.1,-0.8,1.8,2470.702,13.28,0.055,281.5
2021-12-03T04:37:03,42.805,6.029,-0.054,-0.016,-0.057,100.0,100.0,99.0,13.4,1505.2,326.7,-0.8,1.8,2470.68,13.28,0.056,253.5
2021-12-03T04:40:03,42.805,6.029,-0.054,0.018,0.006,100.0,99.0,99.0,13.4,1505.2,326.8,-0.7,1.8,2470.699,13.28,0.056,288.4
2021-12-03T04:43:03,42.805,6.029,-0.089,0.029,-0.007,99.0,101.0,99.0,13.4,1505.2,327.8,-0.8,1.8,2470.691,13.28,0.093,288.0
2021-12-03T04:46:03,42.805,6.029,-0.061,0.024,-0.011,100.0,100.0,99.0,13.4,1505.2,328.8,-0.8,1.8,2470.688,13.28,0.065,291.5
2021-12-03T04:49:03,42.805,6.029,-0.043,0.013,0.008,100.0,100.0,101.0,13.4,1505.2,329.7,-0.7,1.8,2470.678,13.28,0.044,286.8
2021-12-03T04:52:03,42.805,6.029,-0.063,0.0,-0.044,100.0,101.0,99.0,13.3,1505.2,328.4,-0.8,1.8,2470.704,13.28,0.062,270.0
2021-12-03T04:55:03,42.805,6.029,-0.044,-0.005,-0.042,99.0,102.0,99.0,13.3,1505.2,325.7,-0.8,1.8,2470.708,13.28,0.044,263.5
2021-12-03T04:58:03,42.805,6.029,-0.04,-0.006,-0.011,100.0,100.0,99.0,13.4,1505.2,326.0,-0.7,1.8,2470.723,13.28,0.04,261.5
2021-12-03T05:04:03,42.805,6.029,-0.059,-0.005,-0.04,100.0,100.0,100.0,13.4,1505.2,328.4,-0.8,1.8,2470.746,13.28,0.059,265.2
2021-12-03T05:07:03,42.805,6.029,-0.052,0.01,-0.015,100.0,99.0,99.0,13.4,1505.2,329.3,-0.8,1.8,2470.771,13.28,0.052,280.9
2021-12-03T05:10:03,42.805,6.029,-0.033,-0.003,-0.027,100.0,99.0,99.0,13.3,1505.2,329.2,-0.7,1.8,2470.697,13.28,0.033,264.8
2021-12-03T05:13:03,42.805,6.029,-0.073,0.007,-0.047,99.0,101.0,99.0,13.3,1505.2,329.7,-0.7,1.8,2470.751,13.28,0.073,275.5
2021-12-03T05:16:03,42.805,6.029,-0.05,0.001,-0.013,99.0,100.0,99.0,13.3,1505.2,326.2,-0.7,1.8,2470.741,13.28,0.05,271.1
2021-12-03T05:19:03,42.805,6.029,-0.071,0.005,-0.026,99.0,99.0,99.0,13.3,1505.2,329.9,-0.7,1.8,2470.715,13.28,0.071,274.0
2021-12-03T05:22:03,42.805,6.029,-0.08,0.002,-0.03,99.0,100.0,100.0,13.4,1505.2,328.3,-0.8,1.8,2470.723,13.28,0.08,271.4
2021-12-03T05:25:03,42.805,6.029,-0.05,-0.008,-0.026,102.0,100.0,98.0,13.4,1505.2,328.8,-0.8,1.8,2470.735,13.28,0.05,260.9
2021-12-03T05:28:03,42.805,6.029,-0.055,0.017,0.002,100.0,100.0,99.0,13.4,1505.2,332.2,-0.8,1.9,2470.72,13.28,0.057,287.2
2021-12-03T05:31:03,42.805,6.029,-0.034,-0.031,-0.035,100.0,100.0,100.0,13.3,1505.2,327.6,-0.8,1.8,2470.715,13.28,0.046,227.6
2021-12-03T05:34:03,42.805,6.029,-0.056,0.004,-0.011,100.0,100.0,99.0,13.4,1505.2,324.8,-0.8,1.8,2470.753,13.28,0.056,274.1
2021-12-03T05:37:03,42.805,6.029,-0.018,-0.011,-0.017,99.0,100.0,99.0,13.3,1505.2,326.4,-0.7,1.8,2470.757,13.28,0.021,238.6
2021-12-03T05:40:03,42.805,6.029,-0.05,0.008,-0.042,97.0,100.0,100.0,13.4,1505.2,331.8,-0.8,1.8,2470.773,13.28,0.05,279.1
2021-12-03T05:43:03,42.805,6.029,-0.044,-0.032,-0.052,100.0,100.0,98.0,13.3,1505.2,325.7,-0.8,1.8,2470.714,13.28,0.054,234.0
2021-12-03T05:46:03,42.805,6.029,-0.055,0.002,-0.028,101.0,98.0,99.0,13.4,1505.2,327.0,-0.8,1.8,2470.732,13.28,0.055,272.1
2021-12-03T05:49:03,42.805,6.029,-0.04,-0.015,-0.017,100.0,98.0,100.0,13.4,1505.2,327.0,-0.7,1.8,2470.745,13.28,0.042,249.4
2021-12-03T05:52:03,42.805,6.029,-0.037,-0.009,-0.004,98.0,99.0,100.0,13.3,1505.2,326.2,-0.8,1.8,2470.744,13.28,0.038,256.3
2021-12-03T05:55:03,42.805,6.029,-0.055,-0.014,-0.036,100.0,100.0,99.0,13.3,1505.2,326.9,-0.7,1.8,2470.778,13.28,0.056,255.7
2021-12-03T05:58:03,42.805,6.029,-0.063,-0.013,-0.086,99.0,100.0,99.0,13.4,1505.2,326.9,-0.8,1.8,2470.729,13.28,0.064,258.3
2021-12-03T06:04:03,42.805,6.029,-0.053,0.004,-0.046,99.0,99.0,99.0,13.4,1505.2,330.4,-0.8,1.8,2470.779,13.28,0.053,274.3
2021-12-03T06:07:03,42.805,6.029,-0.058,-0.004,-0.031,100.0,100.0,99.0,13.3,1505.2,331.4,-0.8,1.8,2470.78,13.28,0.058,266.1
2021-12-03T06:10:03,42.805,6.029,-0.037,-0.009,-0.002,100.0,100.0,100.0,13.4,1505.2,326.8,-0.8,1.8,2470.781,13.28,0.038,256.3
2021-12-03T06:13:03,42.805,6.029,-0.046,-0.015,-0.024,100.0,101.0,98.0,13.3,1505.2,326.6,-0.8,1.8,2470.748,13.28,0.048,251.9
2021-12-03T06:16:03,42.805,6.029,-0.078,0.005,-0.045,99.0,100.0,99.0,13.3,1505.2,329.0,-0.8,1.8,2470.772,13.28,0.078,273.7
2021-12-03T06:19:03,42.805,6.029,-0.032,-0.008,-0.008,99.0,100.0,100.0,13.4,1505.2,327.2,-0.7,1.8,2470.769,13.28,0.032,256.0
2021-12-03T06:22:03,42.805,6.029,-0.074,0.022,-0.019,101.0,99.0,100.0,13.4,1505.2,327.7,-0.8,1.9,2470.729,13.28,0.077,286.6
2021-12-03T06:25:03,42.805,6.029,-0.069,0.014,-0.05,99.0,99.0,99.0,13.4,1505.2,329.0,-0.8,1.8,2470.775,13.28,0.07,281.5
2021-12-03T06:28:03,42.805,6.029,-0.053,0.009,-0.016,100.0,101.0,100.0,13.4,1505.2,324.5,-0.8,1.8,2470.755,13.28,0.053,279.6
2021-12-03T06:31:03,42.805,6.029,-0.065,-0.02,-0.029,100.0,100.0,99.0,13.4,1505.2,324.5,-0.7,1.8,2470.746,13.28,0.068,252.9
2021-12-03T06:34:03,42.805,6.029,-0.043,-0.003,-0.033,101.0,99.0,99.0,13.3,1505.2,324.6,-0.8,1.8,2470.752,13.28,0.043,266.0
2021-12-03T06:37:03,42.805,6.029,-0.058,0.0,-0.022,100.0,100.0,99.0,13.4,1505.2,325.2,-0.8,1.8,2470.77,13.28,0.057,270.0
2021-12-03T06:40:03,42.805,6.029,-0.061,-0.004,-0.008,101.0,100.0,99.0,13.3,1505.2,328.0,-0.7,1.8,2470.762,13.28,0.061,266.3
2021-12-03T06:43:03,42.805,6.029,-0.03,0.014,-0.027,100.0,101.0,99.0,13.3,1505.2,330.8,-0.7,1.8,2470.731,13.28,0.033,295.0
2021-12-03T06:46:03,42.805,6.029,-0.024,-0.019,-0.042,100.0,102.0,99.0,13.3,1505.2,331.4,-0.7,1.8,2470.731,13.28,0.03,231.6
2021-12-03T06:49:03,42.805,6.029,-0.052,0.0,-0.008,100.0,99.0,100.0,13.3,1505.2,330.1,-0.7,1.8,2470.745,13.28,0.052,270.0
2021-12-03T06:52:03,42.805,6.029,-0.032,-0.005,-0.047,100.0,100.0,99.0,13.4,1505.2,331.6,-0.8,1.8,2470.742,13.28,0.032,261.1
2021-12-03T06:55:03,42.805,6.029,-0.06,0.002,-0.036,100.0,100.0,99.0,13.4,1505.2,327.6,-0.8,1.8,2470.77,13.28,0.06,271.9
2021-12-03T06:58:03,42.805,6.029,-0.065,-0.013,-0.031,100.0,100.0,100.0,13.4,1505.2,327.5,-0.8,1.8,2470.784,13.28,0.066,258.7
2021-12-03T07:04:03,42.805,6.029,-0.045,0.019,-0.011,100.0,100.0,99.0,13.4,1505.2,327.0,-0.7,1.8,2470.816,13.28,0.048,292.9
2021-12-03T07:07:03,42.805,6.029,-0.08,0.03,-0.029,100.0,99.0,99.0,13.4,1505.2,326.8,-0.7,1.8,2470.741,13.28,0.085,290.6
2021-12-03T07:10:03,42.805,6.029,-0.06,0.005,-0.011,100.0,100.0,99.0,13.4,1505.2,326.1,-0.8,1.8,2470.782,13.28,0.06,274.8
2021-12-03T07:13:03,42.805,6.029,-0.061,0.022,-0.007,100.0,100.0,99.0,13.4,1505.2,328.3,-0.7,1.8,2470.764,13.28,0.064,289.8
2021-12-03T07:16:03,42.805,6.029,-0.062,0.007,-0.039,99.0,101.0,99.0,13.4,1505.2,326.4,-0.8,1.8,2470.791,13.28,0.062,276.4
2021-12-03T07:19:03,42.805,6.029,-0.045,0.006,-0.012,101.0,100.0,99.0,13.4,1505.2,327.0,-0.8,1.8,2470.78,13.28,0.045,277.6
2021-12-03T07:22:03,42.805,6.029,-0.051,-0.009,-0.048,100.0,100.0,100.0,13.3,1505.2,325.2,-0.7,1.9,2470.764,13.28,0.051,260.0
2021-12-03T07:25:03,42.805,6.029,-0.052,0.004,-0.028,100.0,100.0,99.0,13.3,1505.2,328.1,-0.8,1.9,2470.746,13.28,0.052,274.4
2021-12-03T07:28:03,42.805,6.029,-0.091,0.007,-0.081,100.0,101.0,99.0,13.3,1505.2,330.7,-0.7,1.8,2470.795,13.28,0.091,274.4
2021-12-03T07:31:03,42.805,6.029,-0.062,-0.029,-0.056,100.0,100.0,100.0,13.4,1505.2,324.7,-0.8,1.8,2470.749,13.28,0.068,244.9
2021-12-03T07:34:03,42.805,6.029,-0.039,-0.001,-0.05,99.0,100.0,100.0,13.4,1505.2,329.4,-0.8,1.8,2470.751,13.28,0.039,268.5
2021-12-03T07:37:03,42.805,6.029,-0.057,0.003,-0.01,100.0,100.0,99.0,13.4,1505.2,330.3,-0.7,1.8,2470.708,13.28,0.057,273.0
2021-12-03T07:40:03,42.805,6.029,-0.087,0.008,-0.043,100.0,101.0,99.0,13.4,1505.2,328.2,-0.8,1.8,2470.745,13.28,0.087,275.3
2021-12-03T07:43:03,42.805,6.029,-0.045,-0.008,-0.046,101.0,99.0,99.0,13.4,1505.2,326.5,-0.7,1.8,2470.719,13.28,0.045,259.9
2021-12-03T07:46:03,42.805,6.029,-0.083,0.003,-0.016,100.0,100.0,98.0,13.4,1505.2,329.1,-0.7,1.8,2470.732,13.28,0.083,272.1
2021-12-03T07:49:03,42.805,6.029,-0.065,0.016,0.006,99.0,100.0,100.0,13.4,1505.2,327.5,-0.7,1.8,2470.729,13.28,0.066,283.8
2021-12-03T07:52:03,42.805,6.029,-0.074,-0.003,-0.025,100.0,100.0,99.0,13.4,1505.2,325.7,-0.8,1.8,2470.732,13.28,0.074,267.7
2021-12-03T07:55:03,42.805,6.029,-0.051,0.005,-0.017,99.0,101.0,99.0,13.4,1505.2,329.9,-0.8,1.8,2470.748,13.28,0.051,275.6
2021-12-03T07:58:03,42.805,6.029,-0.044,-0.022,-0.022,100.0,99.0,99.0,13.3,1505.2,327.7,-0.7,1.8,2470.725,13.28,0.049,243.4
2021-12-03T08:04:03,42.805,6.029,-0.059,-0.008,-0.026,100.0,100.0,100.0,13.4,1505.2,328.7,-0.8,1.8,2470.739,13.28,0.059,262.3
2021-12-03T08:07:03,42.805,6.029,-0.073,0.01,-0.038,100.0,100.0,99.0,13.4,1505.2,330.7,-0.8,1.8,2470.756,13.28,0.073,277.8
2021-12-03T08:10:03,42.805,6.029,-0.061,-0.016,-0.049,101.0,99.0,99.0,13.3,1505.2,327.9,-0.7,1.8,2470.749,13.28,0.063,255.3
2021-12-03T08:13:03,42.805,6.029,-0.058,0.024,-0.004,101.0,100.0,100.0,13.4,1505.2,329.7,-0.8,1.8,2470.738,13.28,0.062,292.5
2021-12-03T08:16:03,42.805,6.029,-0.067,-0.012,-0.051,100.0,100.0,99.0,13.3,1505.2,330.3,-0.8,1.8,2470.732,13.28,0.068,259.8
2021-12-03T08:19:03,42.805,6.029,-0.047,0.006,-0.033,100.0,100.0,101.0,13.3,1505.2,328.8,-0.7,1.8,2470.736,13.28,0.047,277.3
2021-12-03T08:22:03,42.805,6.029,-0.042,0.016,-0.021,100.0,100.0,99.0,13.4,1505.2,328.7,-0.7,1.8,2470.712,13.28,0.044,290.9
2021-12-03T08:25:03,42.805,6.029,-0.073,-0.014,-0.054,100.0,99.0,100.0,13.4,1505.2,326.5,-0.8,1.8,2470.708,13.28,0.074,259.1
2021-12-03T08:28:03,42.805,6.029,-0.073,-0.003,-0.065,100.0,101.0,101.0,13.3,1505.2,326.9,-0.8,1.8,2470.705,13.28,0.073,267.6
2021-12-03T08:31:03,42.805,6.029,-0.048,0.006,-0.037,101.0,99.0,100.0,13.3,1505.2,327.8,-0.8,1.8,2470.654,13.28,0.048,277.1
2021-12-03T08:34:03,42.805,6.029,-0.048,-0.009,-0.021,100.0,99.0,99.0,13.3,1505.2,329.7,-0.7,1.8,2470.651,13.28,0.048,259.4
2021-12-03T08:37:03,42.805,6.029,-0.057,-0.001,-0.008,100.0,99.0,100.0,13.4,1505.2,329.7,-0.7,1.8,2470.677,13.28,0.057,269.0
2021-12-03T08:40:03,42.805,6.029,-0.041,-0.007,-0.06,100.0,99.0,100.0,13.4,1505.2,325.9,-0.8,1.8,2470.682,13.28,0.041,260.3
2021-12-03T08:43:03,42.805,6.029,-0.049,-0.013,-0.042,100.0,100.0,99.0,13.3,1505.2,329.8,-0.8,1.9,2470.695,13.28,0.05,255.1
2021-12-03T08:46:03,42.805,6.029,-0.03,-0.018,-0.059,100.0,100.0,99.0,13.3,1505.2,326.8,-0.8,1.8,2470.713,13.28,0.034,239.0
2021-12-03T08:49:03,42.805,6.029,-0.065,0.014,-0.016,100.0,100.0,99.0,13.4,1505.2,327.3,-0.8,1.8,2470.678,13.28,0.066,282.2
2021-12-03T08:52:03,42.805,6.029,-0.058,-0.005,-0.033,101.0,100.0,99.0,13.4,1505.2,329.7,-0.8,1.8,2470.681,13.28,0.058,265.1
2021-12-03T08:55:03,42.805,6.029,-0.036,0.027,-0.014,100.0,100.0,100.0,13.4,1505.2,327.3,-0.7,1.8,2470.711,13.28,0.045,306.9
2021-12-03T08:58:03,42.805,6.029,-0.061,0.018,-0.029,100.0,100.0,99.0,13.4,1505.2,330.7,-0.8,1.8,2470.675,13.28,0.063,286.4
2021-12-03T09:04:03,42.805,6.029,-0.052,0.005,-0.005,100.0,99.0,99.0,13.4,1505.2,330.4,-0.7,1.8,2470.733,13.28,0.052,275.5
2021-12-03T09:07:03,42.805,6.029,-0.06,0.018,0.002,101.0,99.0,99.0,13.4,1505.2,329.6,-0.7,1.8,2470.674,13.28,0.062,286.7
2021-12-03T09:10:03,42.805,6.029,-0.042,0.022,0.003,100.0,100.0,99.0,13.4,1505.2,327.1,-0.7,1.8,2470.684,13.28,0.047,297.6
2021-12-03T09:13:03,42.805,6.029,-0.077,0.0,-0.038,100.0,100.0,99.0,13.4,1505.2,326.2,-0.8,1.8,2470.679,13.28,0.076,270.0
2021-12-03T09:16:03,42.805,6.029,-0.056,0.006,0.012,100.0,100.0,99.0,13.3,1505.2,326.2,-0.8,1.8,2470.668,13.28,0.056,276.1
2021-12-03T09:19:03,42.805,6.029,-0.059,0.012,-0.009,100.0,100.0,99.0,13.4,1505.2,327.0,-0.8,1.8,2470.655,13.28,0.06,281.5
2021-12-03T09:22:03,42.805,6.029,-0.032,0.016,0.022,101.0,99.0,99.0,13.3,1505.2,326.4,-0.7,1.8,2470.634,13.28,0.035,296.6
2021-12-03T09:25:03,42.805,6.029,-0.039,0.006,-0.017,101.0,100.0,100.0,13.4,1505.2,328.5,-0.7,1.8,2470.646,13.28,0.039,278.7
2021-12-03T09:28:03,42.805,6.029,-0.033,-0.012,0.002,100.0,102.0,100.0,13.4,1505.2,326.6,-0.8,1.8,2470.683,13.28,0.035,250.0
2021-12-03T09:31:03,42.805,6.029,-0.073,-0.011,-0.046,100.0,100.0,99.0,13.4,1505.2,326.9,-0.8,1.8,2470.632,13.28,0.073,261.4
2021-12-03T09:34:03,42.805,6.029,-0.104,-0.008,-0.033,100.0,101.0,99.0,13.4,1505.2,325.0,-0.8,1.8,2470.618,13.28,0.104,265.6
2021-12-03T09:37:03,42.805,6.029,-0.071,0.013,-0.021,100.0,100.0,99.0,13.4,1505.2,329.7,-0.8,1.8,2470.621,13.28,0.072,280.4
2021-12-03T09:40:03,42.805,6.029,-0.065,0.025,-0.048,100.0,100.0,100.0,13.4,1505.2,329.6,-0.8,1.8,2470.618,13.28,0.069,291.0
2021-12-03T09:43:03,42.805,6.029,-0.074,0.001,-0.022,100.0,100.0,99.0,13.4,1505.2,327.6,-0.8,1.8,2470.637,13.28,0.074,270.8
2021-12-03T09:46:03,42.805,6.029,-0.036,-0.003,-0.045,101.0,100.0,100.0,13.4,1505.2,327.9,-0.7,1.8,2470.601,13.28,0.036,265.2
2021-12-03T09:49:03,42.805,6.029,-0.068,-0.003,-0.049,100.0,100.0,99.0,13.4,1505.2,327.6,-0.7,1.8,2470.61,13.28,0.068,267.5
2021-12-03T09:52:03,42.805,6.029,-0.069,0.015,-0.03,101.0,100.0,100.0,13.4,1505.2,329.6,-0.7,1.8,2470.593,13.28,0.07,282.3
2021-12-03T09:55:03,42.805,6.029,-0.047,0.005,-0.025,101.0,100.0,99.0,13.4,1505.2,331.5,-0.8,1.9,2470.603,13.28,0.047,276.1
2021-12-03T09:58:03,42.805,6.029,-0.042,-0.004,0.0,100.0,100.0,99.0,13.3,1505.2,326.1,-0.8,1.8,2470.62,13.28,0.042,264.6